TimeEST,TemperatureF,Dew PointF,Humidity,Sea Level PressureIn,VisibilityMPH,Wind Direction,Wind SpeedMPH,Gust SpeedMPH,PrecipitationIn,Events,Conditions,WindDirDegrees,DateUTC
12:54 AM,28.0,18.0,66,30.26,10.0,SE,3.5,-,N/A,,Partly Cloudy,140,2014-01-01 05:54:00
1:54 AM,26.1,17.1,69,30.25,10.0,SE,3.5,-,N/A,,Partly Cloudy,130,2014-01-01 06:54:00
2:54 AM,24.1,17.1,75,30.24,10.0,SE,6.9,-,N/A,,Partly Cloudy,130,2014-01-01 07:54:00
3:54 AM,24.1,18.0,77,30.24,10.0,Calm,Calm,-,N/A,,Clear,0,2014-01-01 08:54:00
4:54 AM,23.0,18.0,81,30.22,10.0,East,4.6,-,N/A,,Clear,90,2014-01-01 09:54:00
5:54 AM,21.0,17.1,85,30.22,10.0,ENE,4.6,-,N/A,,Clear,60,2014-01-01 10:54:00
6:54 AM,21.0,17.1,85,30.21,10.0,ESE,5.8,-,N/A,,Partly Cloudy,110,2014-01-01 11:54:00
7:54 AM,21.9,18.0,85,30.21,10.0,ESE,5.8,-,N/A,,Partly Cloudy,120,2014-01-01 12:54:00
8:54 AM,24.1,19.9,84,30.20,9.0,East,4.6,-,N/A,,Scattered Clouds,100,2014-01-01 13:54:00
9:54 AM,30.0,24.1,79,30.20,10.0,SSE,6.9,-,N/A,,Mostly Cloudy,160,2014-01-01 14:54:00
10:54 AM,34.0,26.1,73,30.19,10.0,South,6.9,-,N/A,,Mostly Cloudy,170,2014-01-01 15:54:00
11:54 AM,37.0,27.0,67,30.18,10.0,WSW,8.1,-,N/A,,Mostly Cloudy,250,2014-01-01 16:54:00
12:54 PM,37.9,27.0,65,30.15,10.0,SW,8.1,-,N/A,,Mostly Cloudy,220,2014-01-01 17:54:00
1:54 PM,39.9,27.0,60,30.12,10.0,WSW,6.9,-,N/A,,Mostly Cloudy,240,2014-01-01 18:54:00
2:54 PM,39.9,27.0,60,30.10,10.0,WSW,5.8,-,N/A,,Overcast,250,2014-01-01 19:54:00
3:54 PM,39.9,27.0,60,30.10,10.0,West,3.5,-,N/A,,Overcast,280,2014-01-01 20:54:00
4:54 PM,39.0,27.0,62,30.09,10.0,Calm,Calm,-,N/A,,Overcast,0,2014-01-01 21:54:00
5:54 PM,37.0,27.0,67,30.08,10.0,East,3.5,-,N/A,,Overcast,80,2014-01-01 22:54:00
6:54 PM,32.0,26.1,79,30.10,10.0,NNE,9.2,-,N/A,,Overcast,30,2014-01-01 23:54:00
7:54 PM,30.9,25.0,79,30.09,10.0,NE,9.2,-,N/A,,Overcast,40,2014-01-02 00:54:00
8:54 PM,30.9,25.0,79,30.09,10.0,NE,5.8,-,N/A,,Overcast,50,2014-01-02 01:54:00
9:54 PM,30.0,25.0,82,30.06,10.0,NE,5.8,-,N/A,,Overcast,50,2014-01-02 02:54:00
10:54 PM,28.9,25.0,85,30.04,10.0,NE,6.9,-,N/A,,Overcast,50,2014-01-02 03:54:00
11:43 PM,28.4,24.8,86,30.01,2.5,NNE,6.9,-,0.00,Snow,Light Snow,30,2014-01-02 04:43:00
11:54 PM,28.0,25.0,88,30.03,1.8,NNE,8.1,-,0.00,Snow,Light Snow,20,2014-01-02 04:54:00